COSMOS 1275 DEB, 42229

Orbit data source: Space-Track

COSMOS 1275 DEB, 42229 is space debris in LEO originally from a launch on Thu, 04 Jun 1981 UTC launched from the Plesetsk Missile And Space Complex (PKMTR). Debris objects in space refer to the collection of defunct objects orbiting the Earth. Examples of debris include non-operational satellites, rocket bodies, and fragments generated from explosions, collisions, or faulty payload assembly.

Loading next visibility...
Identifier
42229, 1981-053UV
Orbit
LEO
Country
Flag of CISCIS
Related business
Manufacturer
Unknown
Mission
Spacecraft
Bus & Motor
Unknown
Mass
Unknown
Launch date (UTC)
1981-06-04 (45 years ago)
Launch vehicle
Unknown
Launch site
Plesetsk Missile And Space Complex (PKMTR)
Object type
Payload
Rocket body
Debris
Shape & HBR
Unknown shape, 0.1 m
Radar Cross Section
Small (<0.1 m²)

Expand to show TLE details & history
Last TLE update: 1 week ago

TLE from 1 week ago
0 COSMOS 1275 DEB
1 42229U 81053UV  26164.83890729  .00000590  00000-0  80288-3 0  9994
2 42229  83.0181  12.9489 0218433 264.1864  93.4340 13.48615224616537
Epoch: 2026-06-13T20:08Z
TLE epoch observation values (Epoch: 2026-06-13T20:08:01.589Z)
Latitude
-0.00008°
Longitude
168.79402°
Altitude
1,093.516 km
Speed
7.299 km/s
True Right ascension
00h 51m 47s
True Declination
0° 00' 00"
Sunlit
Object was in daylight at epoch
Visualization orbit readout
Latitude
Unknown
Longitude
Unknown
Altitude
Unknown
Speed
Unknown
Apparent Right ascension
Unknown
Apparent Declination
Unknown
Sunlit
N/A
Visualization observer readout
Local Sidereal Time
21:40:14
Azimuth
Unknown
Elevation
Unknown
Doppler factor
Unknown
Orbital elements
Apogee altitude
1,237.329 km
Perigee altitude
911.747 km
Semi-major axis
7,452.675 km
Eccentricity
0.02184
Inclination
83.0181°
RAAN
12.9489°
Arg. of periapsis
264.1864°
True anomaly
95.9277°
Mean anomaly
93.434°
Eccentric anomaly
94.68135°
Mean motion
3.37345 °/min
Orbital period
106.72 mins
BSTAR
0.00080288
Loading maneuver chart data...
Computing Atmospheric mass density...

Documentation

Showing up to 5 results
|